Notices

What's New in latest Release from April 7th, 2021:

- Updated Glossary, including Speed of Maximum Gust, and Total Hourly Precipitation

- Updated national and regional climate services offices contacts and prices information

- Addition of station inventory lists for 1981-2010, 1971-2000, and 1961-1990 Normals.

If you haven't already, please take our survey and provide feedback about our website: https://eccc.sondage-survey.ca/f/LanguageSelection.aspx?s=442ca660-fcf1-47c0-95a9-59707d6fd709

Hourly Data Report for April 05, 2003

TORONTO CITY
ONTARIO

43°40'00.000" N
79°24'00.000" W
112.50 m
6158355
71508
XTO

Download Data

Hourly Data (April 2003)
Hourly Data Report for April 5, 2003
TIME
LST
Temp Definition
°C
Dew Point Definition
°C
Rel Hum Definition
%
Precip. Amount Definition
mm

Wind Dir Definition
10's deg

Wind Spd Definition
km/h
Visibility Definition
km
Stn Press Definition
kPa
Hmdx Definition


Wind Chill Definition


Weather Definition


00:00 -3.7 -5.3 89   LegendMM LegendMM LegendMM 99.54     LegendNANA
01:00 -3.2 -4.3 92   LegendMM LegendMM LegendMM 99.37     LegendNANA
02:00 -2.8 -3.6 94   LegendMM LegendMM LegendMM 99.17     LegendNANA
03:00 -2.2 -2.8 96   LegendMM LegendMM LegendMM 99.02     LegendNANA
04:00 -1.4 -1.9 96   LegendMM LegendMM LegendMM 98.91     LegendNANA
05:00 -1.0 -1.6 96   LegendMM LegendMM LegendMM 98.84     LegendNANA
06:00 -1.0 -1.6 96   LegendMM LegendMM LegendMM 98.83     LegendNANA
07:00 -0.7 -1.2 96   LegendMM LegendMM LegendMM 98.85     LegendNANA
08:00 -0.5 -1.0 96   LegendMM LegendMM LegendMM 98.75     LegendNANA
09:00 0.1 -0.4 96   LegendMM LegendMM LegendMM 98.84     LegendNANA
10:00 -0.1 -0.7 96   LegendMM LegendMM LegendMM 98.86     LegendNANA
11:00 0.1 -0.6 95   LegendMM LegendMM LegendMM 98.95     LegendNANA
12:00 0.7 -0.2 94   LegendMM LegendMM LegendMM 99.00     LegendNANA
13:00 1.5 -0.2 88   LegendMM LegendMM LegendMM 99.15     LegendNANA
14:00 1.0 -2.8 76   LegendMM LegendMM LegendMM 99.28     LegendNANA
15:00 0.7 -4.0 71   LegendMM LegendMM LegendMM 99.43     LegendNANA
16:00 0.3 -5.8 64   LegendMM LegendMM LegendMM 99.61     LegendNANA
17:00 -0.6 -6.1 66   LegendMM LegendMM LegendMM 99.81     LegendNANA
18:00 -1.6 -8.2 61   LegendMM LegendMM LegendMM 100.04     LegendNANA
19:00 -2.4 -9.0 60   LegendMM LegendMM LegendMM 100.23     LegendNANA
20:00 -3.2 -9.1 64   LegendMM LegendMM LegendMM 100.40     LegendNANA
21:00 -3.5 -8.6 68   LegendMM LegendMM LegendMM 100.53     LegendNANA
22:00 -4.2 -9.5 67   LegendMM LegendMM LegendMM 100.66     LegendNANA
23:00 -4.7 -10.6 63   LegendMM LegendMM LegendMM 100.78     LegendNANA

Notes on Data Quality.

Legend

  • E = Estimated
  • M = Missing
  • NA = Not Available*
  • [empty] = Indicates an unobserved value
Date modified: